Location: Cargill Incorporated Elevator
(42.7294°N, 93.7333°W)
Time: 04:54:36
(UTC+00:00)

CORIOLIS - Pass Details

Date: 19 January 2026
Orbit: 816 x 835 km, 98.7° (Epoch: 15 February)

Event Time Altitude Azimuth Distance (km) Brightness Sun altitude
Rises 12:50:11 0° 11° (N) 3,394 7.3 -9.3°
Reaches altitude 10° 12:52:34 10° 10° (N) 2,455 6.5 -8.9°
Maximum altitude 12:57:59 72° 287° (WNW) 876 4.1 -7.9°
Drops below altitude 10° 13:03:21 10° 203° (SSW) 2,431 6.6 -7.0°
Sets 13:05:41 0° 202° (SSW) 3,357 7.3 -6.6°
